Location: Observatoire
(46.1952°N, 5.3391°E)
Time: 05:52:53
(UTC+01:00)

Altair - Pass Details

Date: 23 February 2026
Orbit: 1502 x 1682 km, 47.2° (Epoch: 5 March)

Event Time Altitude Azimuth Distance (km) Brightness Sun altitude
Rises 10:07:48 0° 292° (WNW) 4,696 9.5 23.1°
Reaches altitude 10° 10:10:58 10° 286° (WNW) 3,732 9.1 23.5°
Maximum altitude 10:19:43 44° 219° (SW) 2,077 8.6 24.5°
Drops below altitude 10° 10:28:47 10° 151° (SSE) 3,852 11.3 25.5°
Sets 10:32:07 0° 145° (SE) 4,859 11.5 25.9°
